Date String (YYYY-MM-DD hh:mm:ss) UTC,Instrument flags,absolute air pressure of the measurement (hPa),sample flow rate (lpm),inlet stack bypass flow (lpm),air temperature of the measurement (°C),ambient temperature measured by the external sensor (°C),aerosol sample conditioner tube jacket temperature (°C),OPC LED temperature (°C),internal box temperature (°C),relative humidity of the measurement (%),span deviation,mass concentration of particles derived from Lorenz-Mie calculation of OPC scattering (μg/m³),mass concentration of particles derived from Lorenz-Mie calculation of OPC scattering (μg/m³),mass concentration of particles derived from Lorenz-Mie calculation of OPC scattering (μg/m³)
DateTimeUTC,F1_M11,P_M11,Q1_M11,Q2_M11,T1_M11,T2_M11,T3_M11,T4_M11,T5_M11,U1_M11,ZSPAN_M11,X2_M11,X0_M11,X1_M11
2023-08-04 04:00:00,SystemResetWarning,0833.2,4.99,000.00,032.2,028.2,000.0,039.7,031.8,33.6,0000.0,0003.70,0008.43,0003.18
2023-08-04 04:01:00,SystemResetWarning,0833.2,5.00,000.00,032.2,028.0,000.0,039.7,031.8,33.5,0000.0,0003.77,0009.06,0003.20
2023-08-04 04:02:00,SystemResetWarning,0833.2,4.99,000.00,032.2,026.5,000.0,039.6,031.7,33.4,0000.0,0003.81,0009.11,0003.21
2023-08-04 04:03:00,SystemResetWarning,0833.2,5.00,000.00,032.1,025.6,000.0,039.5,031.4,33.6,0000.0,0003.81,0009.07,0003.21
2023-08-04 04:04:00,SystemResetWarning,0833.2,5.01,000.00,031.9,025.6,000.0,039.6,031.2,33.8,0000.0,0003.79,0009.43,0003.21
2023-08-04 04:05:00,SystemResetWarning,0833.2,5.01,000.00,031.8,026.0,000.0,039.6,031.2,34.0,0000.0,0003.81,0009.34,0003.22
2023-08-04 04:06:00,SystemResetWarning,0833.2,4.99,000.00,031.7,026.4,000.0,039.6,031.3,33.8,0000.0,0003.81,0008.77,0003.22
2023-08-04 04:07:00,SystemResetWarning,0833.2,5.00,000.00,031.6,026.8,000.0,039.6,031.4,33.9,0000.0,0003.82,0008.73,0003.23
2023-08-04 04:08:00,SystemResetWarning,0833.2,5.00,000.00,031.6,027.1,000.0,039.6,031.4,34.1,0000.0,0003.86,0008.69,0003.24
2023-08-04 04:09:00,SystemResetWarning,0833.2,5.00,000.00,031.5,027.4,000.0,039.6,031.5,34.1,0000.0,0003.90,0008.74,0003.26
2023-08-04 04:10:00,SystemResetWarning,0833.1,5.00,000.00,031.5,027.7,000.0,039.6,031.6,34.0,0000.0,0003.96,0008.90,0003.26
2023-08-04 04:11:00,SystemResetWarning,0833.2,5.01,000.00,031.5,027.9,000.0,039.6,031.6,33.9,0000.0,0004.00,0008.87,0003.26
2023-08-04 04:12:00,SystemResetWarning,0833.2,5.00,000.00,031.5,028.1,000.0,039.6,031.7,33.7,0000.0,0003.92,0008.01,0003.26
2023-08-04 04:13:00,SystemResetWarning,0833.2,5.00,000.00,031.4,028.2,000.0,039.6,031.7,33.6,0000.0,0003.91,0007.94,0003.27
2023-08-04 04:14:00,SystemResetWarning,0833.1,4.99,000.00,031.4,028.3,000.0,039.6,031.8,33.6,0000.0,0003.90,0007.93,0003.28
2023-08-04 04:15:00,SystemResetWarning,0833.2,4.99,000.00,031.4,027.0,000.0,039.4,031.6,33.7,0000.0,0003.92,0007.76,0003.29
2023-08-04 04:16:00,SystemResetWarning,0833.5,5.01,000.00,031.3,025.8,000.0,039.3,031.4,33.9,0000.0,0003.94,0008.07,0003.30
2023-08-04 04:17:00,SystemResetWarning,0833.2,5.01,000.00,031.2,025.6,000.0,039.2,031.1,34.2,0000.0,0003.94,0008.26,0003.31
2023-08-04 04:18:00,SystemResetWarning,0833.0,5.02,000.00,031.0,025.9,000.0,039.2,031.0,34.7,0000.0,0003.94,0008.24,0003.32
2023-08-04 04:19:00,SystemResetWarning,0833.0,4.98,000.00,030.9,026.2,000.0,039.2,031.1,35.0,0000.0,0003.91,0008.17,0003.32
2023-08-04 04:20:00,SystemResetWarning,0833.1,5.00,000.00,030.9,026.6,000.0,039.2,031.2,35.1,0000.0,0003.89,0008.23,0003.32
2023-08-04 04:21:00,SystemResetWarning,0833.0,5.01,000.00,031.1,027.0,000.0,039.2,031.4,34.8,0000.0,0003.85,0008.55,0003.32
2023-08-04 04:22:00,SystemResetWarning,0833.0,4.98,000.00,031.2,027.3,000.0,039.2,031.5,34.5,0000.0,0003.84,0008.61,0003.33
2023-08-04 04:23:00,SystemResetWarning,0833.0,5.02,000.00,031.3,027.6,000.0,039.2,031.5,34.4,0000.0,0003.88,0009.03,0003.34
2023-08-04 04:24:00,SystemResetWarning,0833.0,5.00,000.00,031.3,027.8,000.0,039.2,031.6,34.3,0000.0,0003.92,0009.17,0003.36
2023-08-04 04:25:00,SystemResetWarning,0833.0,5.00,000.00,031.3,028.0,000.0,039.3,031.6,34.3,0000.0,0003.92,0009.16,0003.36
2023-08-04 04:26:00,SystemResetWarning,0833.0,5.00,000.00,031.4,028.2,000.0,039.3,031.7,34.2,0000.0,0003.96,0009.11,0003.38
2023-08-04 04:27:00,SystemResetWarning,0833.0,5.00,000.00,031.4,028.3,000.0,039.3,031.7,34.2,0000.0,0003.96,0008.70,0003.38
2023-08-04 04:28:00,SystemResetWarning,0833.0,4.99,000.00,031.4,027.6,000.0,039.3,031.7,34.2,0000.0,0003.98,0008.46,0003.39
2023-08-04 04:29:00,SystemResetWarning,0833.1,5.00,000.00,031.4,026.0,000.0,039.1,031.5,34.0,0000.0,0004.01,0008.52,0003.40
2023-08-04 04:30:00,SystemResetWarning,0833.1,5.01,000.00,031.2,025.6,000.0,039.1,031.2,33.9,0000.0,0004.03,0008.55,0003.41
2023-08-04 04:31:00,SystemResetWarning,0833.2,5.01,000.00,031.1,025.7,000.0,039.1,031.0,34.1,0000.0,0004.06,0008.55,0003.43
2023-08-04 04:32:00,SystemResetWarning,0833.0,5.00,000.00,031.0,026.1,000.0,039.1,031.1,34.3,0000.0,0004.11,0008.35,0003.44
2023-08-04 04:33:00,SystemResetWarning,0833.0,5.00,000.00,030.9,026.5,000.0,039.1,031.1,34.6,0000.0,0004.09,0008.11,0003.45
2023-08-04 04:34:00,SystemResetWarning,0833.1,5.00,000.00,030.9,026.9,000.0,039.1,031.2,34.9,0000.0,0004.06,0008.06,0003.44
2023-08-04 04:35:00,SystemResetWarning,0833.0,4.98,000.00,030.8,027.2,000.0,039.1,031.3,35.0,0000.0,0004.02,0008.29,0003.43
2023-08-04 04:36:00,SystemResetWarning,0833.2,5.04,000.00,030.9,027.5,000.0,039.1,031.4,34.8,0000.0,0004.04,0008.33,0003.42
2023-08-04 04:37:00,SystemResetWarning,0833.0,4.96,000.00,031.0,027.7,000.0,039.1,031.5,34.5,0000.0,0004.02,0008.31,0003.42
2023-08-04 04:38:00,SystemResetWarning,0833.1,5.01,000.00,031.0,027.9,000.0,039.1,031.5,34.2,0000.0,0004.01,0008.25,0003.42
2023-08-04 04:39:00,SystemResetWarning,0833.2,5.01,000.00,031.1,028.1,000.0,039.1,031.5,34.2,0000.0,0004.00,0008.17,0003.43
2023-08-04 04:40:00,SystemResetWarning,0833.1,5.00,000.00,031.1,028.2,000.0,039.1,031.6,34.2,0000.0,0003.98,0008.18,0003.43
2023-08-04 04:41:00,SystemResetWarning,0833.1,5.00,000.00,031.1,028.3,000.0,039.1,031.6,34.3,0000.0,0003.97,0008.24,0003.43
2023-08-04 04:42:00,SystemResetWarning,0833.2,5.00,000.00,031.1,028.2,000.0,039.1,031.7,34.3,0000.0,0003.99,0008.32,0003.43
2023-08-04 04:43:00,SystemResetWarning,0833.1,4.99,000.00,031.1,026.6,000.0,039.0,031.5,34.4,0000.0,0003.96,0007.97,0003.43
2023-08-04 04:44:00,SystemResetWarning,0833.1,5.00,000.00,031.0,025.7,000.0,038.9,031.3,34.8,0000.0,0003.97,0008.01,0003.44
2023-08-04 04:45:00,SystemResetWarning,0833.3,4.99,000.00,030.9,025.7,000.0,038.9,031.0,35.1,0000.0,0004.01,0007.69,0003.47
2023-08-04 04:46:00,SystemResetWarning,0833.2,5.03,000.00,030.8,026.0,000.0,039.0,031.1,34.8,0000.0,0004.00,0007.36,0003.48
2023-08-04 04:47:00,SystemResetWarning,0833.2,4.97,000.00,030.9,026.4,000.0,039.0,031.2,34.5,0000.0,0004.01,0007.33,0003.49
2023-08-04 04:48:00,SystemResetWarning,0833.2,5.03,000.00,030.9,026.7,000.0,039.0,031.3,34.5,0000.0,0003.99,0007.36,0003.49
2023-08-04 04:49:00,SystemResetWarning,0833.2,4.99,000.00,031.0,027.1,000.0,039.0,031.3,34.4,0000.0,0003.97,0007.50,0003.48
2023-08-04 04:50:00,SystemResetWarning,0833.2,4.99,000.00,030.9,027.4,000.0,039.0,031.4,34.4,0000.0,0003.95,0007.48,0003.47
2023-08-04 04:51:00,SystemResetWarning,0833.2,5.02,000.00,031.0,027.6,000.0,039.0,031.4,34.4,0000.0,0003.93,0007.36,0003.46
2023-08-04 04:52:00,SystemResetWarning,0833.2,5.00,000.00,031.0,027.9,000.0,039.0,031.5,34.4,0000.0,0003.93,0007.19,0003.44
2023-08-04 04:53:00,SystemResetWarning,0833.2,5.00,000.00,031.0,028.0,000.0,039.1,031.5,34.2,0000.0,0003.91,0008.15,0003.44
2023-08-04 04:54:00,SystemResetWarning,0833.2,5.00,000.00,031.0,028.2,000.0,039.1,031.6,34.2,0000.0,0003.88,0008.16,0003.44
2023-08-04 04:55:00,SystemResetWarning,0833.2,5.00,000.00,031.0,028.3,000.0,039.1,031.6,34.1,0000.0,0003.88,0008.16,0003.43
2023-08-04 04:56:00,SystemResetWarning,0833.2,4.99,000.00,031.0,028.0,000.0,039.1,031.6,34.1,0000.0,0003.86,0008.05,0003.41
2023-08-04 04:57:00,SystemResetWarning,0833.2,5.00,000.00,030.9,026.4,000.0,038.9,031.4,34.1,0000.0,0003.89,0008.08,0003.41
2023-08-04 04:58:00,SystemResetWarning,0833.2,5.00,000.00,030.9,025.6,000.0,038.8,031.2,34.3,0000.0,0003.89,0008.19,0003.40
2023-08-04 04:59:00,SystemResetWarning,0833.1,5.00,000.00,030.7,025.7,000.0,038.8,030.9,35.1,0000.0,0003.92,0008.41,0003.40
